Elwood, MO

12:52 PM CST on February 07, 2016 (GMT -0600)
Rosecrans Memorial

Weather History for KSTJ - August, 2014

Change the Weather History Date:

Wednesday, August 13, 2014

  Actual Average Record
Temperature  
Mean Temperature 67 °F 76 °F  
Max Temperature 80 °F 87 °F 110 °F (1936)
Min Temperature 53 °F 65 °F 46 °F (1964)
Degree Days  
Heating Degree Days 0 0  
Month to date heating degree days 0 0  
Since 1 June heating degree days 7 9  
Since 1 July heating degree days 6 1  
Cooling Degree Days 2 11  
Month to date cooling degree days 115 153  
Year to date cooling degree days 814 907  
Since 1 June cooling degree days 653 794  
Growing Degree Days 16 (Base 50)    
Moisture  
Dew Point 57 °F    
Average Humidity 73    
Maximum Humidity 100    
Minimum Humidity 45    
Precipitation  
Precipitation 0.00 in 0.13 in 2.87 in (1982)
Month to date precipitation 0.68 1.50  
Year to date precipitation 20.77 23.82  
Sea Level Pressure  
Sea Level Pressure 30.12 in    
Wind  
Wind Speed 1 mph (SSW)    
Max Wind Speed 8 mph    
Max Gust Speed 13 mph    
Visibility 7 miles    
Events Fog    
T = Trace of Precipitation, MM = Missing Value Source: NWS Daily Summary

Daily Weather History Graph

Daily Weather History Graph

Search for Another Location

Airport or City:

Trip Planner

Search our weather history database for the weather conditions in past years. The results will help you decide how hot, cold, wet, or windy it might be!

Date:

Astronomy

Aug. 13, 2014 Rise Set
Actual Time 6:29 AM CDT 8:18 PM CDT
Civil Twilight 6:00 AM CDT 8:47 PM CDT
Nautical Twilight 5:25 AM CDT 9:22 PM CDT
Astronomical Twilight 4:47 AM CDT 10:00 PM CDT
Moon 10:04 PM CDT (8/13) 9:58 AM CDT (8/13)
Length of Visible Light 14h 46m
Length of Day
13h 48m
Waning Gibbous, 87% of the Moon is Illuminated
Aug 13
Waning Gibbous
Aug 17
Last Quarter
Aug 25
New
Sep 2
First Quarter
Sep 8
Full

Hourly Weather History & Observations

Time (CDT) Temp. Heat Index Dew Point Humidity Pressure Visibility Wind Dir Wind Speed Gust Speed Precip Events Conditions
12:53 AM 57.0 °F - 55.0 °F 93% 30.10 in 10.0 mi Calm Calm - N/A   Clear
1:53 AM 55.0 °F - 54.0 °F 96% 30.11 in 10.0 mi Calm Calm - N/A   Clear
2:53 AM 55.0 °F - 55.0 °F 100% 30.12 in 2.5 mi Calm Calm - N/A   Clear
2:57 AM 55.9 °F - 54.0 °F 93% 30.13 in 3.0 mi Calm Calm - N/A   Partly Cloudy
3:53 AM 53.1 °F - 52.0 °F 96% 30.13 in 10.0 mi Calm Calm - N/A   Clear
4:06 AM 54.0 °F - 53.1 °F 97% 30.14 in 10.0 mi Calm Calm - N/A   Scattered Clouds
4:13 AM 54.0 °F - 53.1 °F 97% 30.14 in 1.8 mi Calm Calm - N/A   Mostly Cloudy
4:17 AM 53.1 °F - 53.1 °F 100% 30.14 in 0.5 mi Calm Calm - N/A Fog Fog
4:53 AM 54.0 °F - 53.1 °F 97% 30.13 in 0.5 mi Calm Calm - N/A Fog Fog
5:13 AM 54.0 °F - 54.0 °F 100% 30.14 in 0.2 mi Calm Calm - N/A Fog Fog
5:25 AM 54.0 °F - 54.0 °F 100% 30.14 in 0.2 mi Calm Calm - N/A Fog Fog
5:53 AM 54.0 °F - 54.0 °F 100% 30.13 in 0.2 mi Calm Calm - N/A Fog Fog
6:12 AM 54.0 °F - 54.0 °F 100% 30.15 in 0.2 mi Calm Calm - N/A Fog Fog
6:19 AM 53.1 °F - 53.1 °F 100% 30.15 in 0.2 mi Calm Calm - N/A Fog Fog
8:21 AM 57.9 °F - 57.9 °F 100% 30.17 in 9.0 mi Calm Calm - N/A   Scattered Clouds
10:53 AM 75.0 °F - 62.1 °F 64% 30.16 in 10.0 mi Calm Calm - N/A   Unknown
11:53 AM 75.0 °F - 57.9 °F 55% 30.15 in 10.0 mi Calm Calm - N/A   Clear
12:53 PM 77.0 °F - 55.9 °F 48% 30.13 in 10.0 mi Calm Calm - N/A   Clear
1:53 PM 80.1 °F 80.6 °F 57.9 °F 47% 30.12 in 10.0 mi Calm Calm - N/A   Clear
2:53 PM 79.0 °F - 57.9 °F 48% 30.11 in 10.0 mi Variable 3.5 mph - N/A   Clear
3:53 PM 79.0 °F - 60.1 °F 52% 30.10 in 10.0 mi South 3.5 mph - N/A   Clear
4:53 PM 80.1 °F 80.4 °F 57.0 °F 45% 30.09 in 10.0 mi Calm Calm - N/A   Clear
5:53 PM 79.0 °F - 60.1 °F 52% 30.07 in 10.0 mi Variable 3.5 mph - N/A   Clear
6:53 PM 77.0 °F - 60.1 °F 56% 30.06 in 10.0 mi Calm Calm - N/A   Clear
7:53 PM 73.0 °F - 62.1 °F 68% 30.06 in 10.0 mi SSE 4.6 mph - N/A   Clear
8:53 PM 66.9 °F - 62.1 °F 84% 30.06 in 10.0 mi Calm Calm - N/A   Clear
9:53 PM 63.0 °F - 61.0 °F 93% 30.07 in 10.0 mi NW 3.5 mph - N/A   Clear
11:53 PM 62.1 °F - 59.0 °F 90% 30.09 in 10.0 mi Calm Calm - N/A   Clear